Home > Weather > Ankara > Past weeks

Flag for Turkey Past Weather in Ankara, Turkey — Yesterday and Last 2 Weeks

Now
68 °F

Clear.


Feels Like: 68 °F
Forecast: 62 / 92 °F
Wind: 6 mph from Northeast

Location: Ankara / Esenboga

Current Time: Jun 25, 2016 at 1:06:10 AM

Latest Report: Jun 25, 2016 at 12:20 AM


Visibility: 10 mi

Pressure: 30.04 "Hg (27.14 "Hg at 871m altitude)

Humidity: 64%

Dew Point: 55 °F

Location of AnkaraLocation

Past Weather in Ankara — Graph

°F

Ankara Temperature Yesterday

Maximum temperature yesterday: 86 °F (at 12:50 PM)
Minimum temperature yesterday: 61 °F (at 4:50 AM)
Average temperature yesterday: 76 °F

High & Low Weather Summary for the Past Weeks

 TemperatureHumidityPressure
High90 °F (Jun 20, 3:50 PM)94% (Jun 15, 3:20 AM)30.18 "Hg (Jun 15, 3:20 AM)
Low45 °F (Jun 10, 5:20 AM)16% (Jun 12, 3:20 PM)29.74 "Hg (Jun 15, 12:50 AM)
Average69 °F48%30.02 "Hg
* Reported Jun 9 11:20 PM — Jun 24 11:50 PM, Ankara, Weather by CustomWeather, © 2016

Note: Actual official high and low records may vary slightly from our data, if they occured in-between our weather recording intervals... More about our weather records

Advertising

Ankara Weather History for the Previous 24 Hours

Scroll right to see more
 ConditionsComfort  
Time TempWeatherWind HumidityBarometerVisibility
11:50 PM
Fri, Jun 24
70 °FClear.8 mph57%30.04 "Hg10 mi
11:20 PM68 °FClear.3 mph60%30.04 "Hg10 mi
10:50 PM70 °FClear.7 mph57%30.04 "Hg10 mi
10:20 PM72 °FClear.5 mph53%30.04 "Hg10 mi
9:50 PM73 °FClear.9 mph50%30.04 "Hg10 mi
9:20 PM73 °FSunny.6 mph50%30.01 "Hg10 mi
8:50 PM75 °FPassing clouds.9 mph47%30.01 "HgN/A
8:20 PM79 °FScattered clouds.12 mph39%30.01 "HgN/A
7:50 PM81 °FScattered clouds.18 mph34%29.98 "HgN/A
7:20 PM82 °FScattered clouds.16 mph30%29.98 "HgN/A
6:50 PM84 °FScattered clouds.16 mph29%29.98 "HgN/A
6:20 PM84 °FScattered clouds.16 mph29%29.98 "HgN/A
5:50 PM84 °FScattered clouds.14 mph27%29.98 "HgN/A
5:20 PM86 °FScattered clouds.15 mph25%29.98 "HgN/A
4:50 PM86 °FScattered clouds.17 mph25%29.98 "HgN/A
4:20 PM86 °FScattered clouds.17 mph25%29.98 "HgN/A
3:50 PM86 °FScattered clouds.15 mph24%29.98 "HgN/A
3:20 PM86 °FScattered clouds.15 mph25%29.98 "HgN/A
2:50 PM84 °FScattered clouds.15 mph25%29.98 "HgN/A
2:20 PM86 °FScattered clouds.15 mph25%30.01 "HgN/A
1:50 PM86 °FScattered clouds.14 mph27%30.01 "HgN/A
1:20 PM86 °FScattered clouds.13 mph25%30.01 "HgN/A
12:50 PM86 °FScattered clouds.17 mph27%30.01 "HgN/A
12:20 PM84 °FScattered clouds.14 mph31%30.01 "HgN/A
11:50 AM84 °FScattered clouds.14 mph27%30.04 "HgN/A
11:20 AM82 °FPassing clouds.17 mph28%30.04 "HgN/A
10:50 AM82 °FPassing clouds.20 mph30%30.04 "HgN/A
10:20 AM81 °FPassing clouds.18 mph34%30.04 "HgN/A
9:50 AM79 °FPassing clouds.13 mph39%30.04 "HgN/A
9:20 AM79 °FSunny.14 mph39%30.04 "Hg10 mi
8:50 AM77 °FSunny.13 mph44%30.07 "Hg10 mi
8:20 AM75 °FSunny.10 mph47%30.07 "Hg10 mi
7:50 AM72 °FSunny.No wind53%30.07 "Hg10 mi
7:20 AM66 °FSunny.2 mph64%30.07 "Hg10 mi
6:50 AM64 °FSunny.No wind64%30.04 "Hg10 mi
6:20 AM66 °FSunny.5 mph60%30.04 "Hg10 mi
5:50 AM64 °FPassing clouds.6 mph60%30.04 "HgN/A
5:20 AM61 °FClear.3 mph68%30.07 "Hg10 mi
4:50 AM61 °FClear.1 mph68%30.07 "Hg10 mi
4:20 AM64 °FClear.1 mph64%30.07 "Hg10 mi
3:50 AM66 °FClear.1 mph56%30.07 "Hg10 mi
3:20 AM63 °FClear.1 mph68%30.07 "Hg10 mi
2:50 AM68 °FClear.2 mph53%30.07 "Hg10 mi
2:20 AM68 °FClear.8 mph53%30.07 "Hg10 mi
1:50 AM68 °FClear.8 mph56%30.07 "Hg10 mi
1:20 AM70 °FClear.10 mph53%30.07 "Hg10 mi
Weather by CustomWeather, © 2016

See weather overviewHow to use our weather pages